Vorticity
5 11 6 3 3 2 2 3 2 3 3 3 4 4 4 2 3 4 4 5 2 1 3 2 2 3 3 3 3 3 2 9 4
5 7 9 4 3 2 1 3 2 3 4 4 3 3 3 3 4 3 4 4 5 2 1 2 2 1 3 3 2 4 -0 7 4
8 5 9 6 3 3 2 2 2 2 3 4 3 5 5 5 5 5 5 4 4 5 4 2 2 1 0 2 3 3 3 7 2
5 11 6 8 5 3 2 2 2 1 2 2 2 3 4 4 4 4 5 7 6 4 4 5 3 3 0 2 3 2 2 1 10
12 7 8 7 7 5 4 3 2 2 2 2 1 1 2 3 4 4 5 5 6 6 5 4 4 5 2 4 3 3 3 2 2
2 11 20 5 6 7 5 4 3 3 2 2 2 2 2 3 4 5 5 4 4 5 6 5 6 5 4 2 4 4 3 3 3
4 6 4 18 5 6 6 5 4 3 3 2 2 2 2 2 4 5 5 5 4 4 5 5 6 6 4 4 5 4 3 4 3
3 3 6 9 11 6 6 5 5 4 3 3 2 2 3 3 3 4 5 5 4 4 5 5 5 6 5 4 2 5 4 3 2
3 3 2 5 10 12 6 6 6 5 4 3 3 3 2 3 3 5 5 5 4 4 5 5 6 6 5 4 5 5 3 4 4
4 4 4 3 3 9 12 6 6 6 5 5 4 3 3 3 4 6 6 5 4 4 5 5 6 6 5 5 4 5 5 3 3
9 5 3 4 3 2 6 11 13 7 5 5 4 4 3 3 6 8 7 6 4 5 5 5 5 5 5 5 6 5 4 5 5
6 10 6 4 4 3 3 4 5 9 13 13 11 11 10 11 10 7 6 4 4 4 5 4 7 6 4 4 5 5 5 4 4
6 6 9 7 4 4 3 4 3 4 4 5 7 7 7 6 5 5 4 4 4 5 5 5 6 6 3 4 6 6 5 5 6
7 7 4 8 9 6 4 3 3 4 4 3 3 4 4 4 4 4 3 4 6 5 4 5 6 4 3 5 6 5 5 6 7
-2 6 7 5 7 10 8 5 4 4 4 4 5 5 4 3 4 3 5 6 6 5 4 5 6 2 5 5 6 5 5 6 6
5 1 4 18 6 7 8 9 6 5 4 4 4 3 3 4 5 6 6 6 4 4 6 6 4 7 6 5 6 5 5 5 5
26 -2 1 2 -0 9 9 5 7 9 7 6 5 6 6 7 8 7 6 4 4 6 6 4 6 7 3 8 5 5 6 6 6
4 9 9 -10 13 -6 10 8 9 7 7 8 6 6 7 6 4 4 3 5 6 6 6 7 7 3 5 7 6 7 7 8 7
8 9 3 6 7 6 1 4 10 12 9 7 7 8 8 8 8 8 10 7 6 6 7 8 4 3 6 6 6 5 8 9 9
9 7 14 5 1 9 6 2 -3 1 5 5 9 7 6 6 6 7 6 8 7 9 9 6 3 5 6 5 3 6 10 12 10
Height
5877 5879 5880 5882 5884 5886 5888 5889 5891 5892 5893 5894 5895 5897 5897 5897 5898 5898 5899 5898 5898 5897 5897 5896 5895 5895 5894 5893 5892 5890 5888 5886 5884
5875 5877 5879 5881 5883 5885 5887 5889 5890 5891 5892 5893 5894 5896 5897 5897 5897 5898 5898 5898 5897 5897 5897 5896 5896 5895 5894 5893 5892 5891 5890 5888 5886
5874 5875 5877 5879 5881 5883 5885 5888 5889 5890 5891 5892 5893 5894 5895 5896 5897 5897 5897 5897 5897 5896 5897 5896 5896 5895 5894 5893 5893 5891 5890 5889 5887
5872 5874 5875 5877 5878 5880 5882 5885 5887 5888 5890 5891 5892 5893 5894 5895 5895 5896 5896 5896 5896 5895 5896 5896 5896 5895 5894 5893 5892 5892 5890 5889 5887
5869 5871 5873 5874 5876 5878 5880 5882 5884 5886 5888 5889 5890 5891 5892 5893 5894 5895 5895 5895 5895 5894 5894 5894 5894 5894 5893 5893 5892 5891 5891 5889 5888
5865 5867 5870 5871 5873 5875 5876 5878 5881 5883 5885 5887 5888 5889 5891 5891 5892 5893 5893 5893 5893 5893 5892 5892 5893 5892 5892 5892 5891 5890 5889 5889 5887
5861 5863 5865 5868 5869 5870 5872 5875 5878 5880 5881 5883 5885 5886 5887 5889 5890 5890 5891 5891 5891 5891 5890 5890 5891 5890 5890 5890 5890 5889 5888 5887 5886
5855 5858 5860 5863 5865 5867 5868 5870 5873 5876 5879 5879 5881 5883 5884 5885 5887 5887 5888 5888 5888 5889 5888 5888 5888 5888 5888 5888 5887 5887 5886 5885 5883
5849 5853 5856 5858 5860 5863 5864 5867 5868 5870 5873 5876 5877 5879 5880 5881 5882 5884 5884 5885 5885 5886 5886 5885 5886 5886 5885 5885 5884 5884 5884 5882 5881
5843 5846 5850 5852 5854 5857 5859 5862 5864 5866 5868 5871 5874 5874 5875 5877 5878 5880 5880 5881 5882 5882 5882 5883 5882 5882 5882 5882 5881 5881 5881 5880 5879
5835 5839 5843 5845 5848 5851 5854 5856 5859 5861 5863 5865 5868 5870 5870 5871 5873 5875 5876 5877 5878 5878 5879 5879 5879 5879 5878 5878 5877 5876 5876 5876 5876
5827 5832 5836 5837 5840 5843 5848 5851 5852 5855 5857 5859 5861 5864 5865 5866 5868 5870 5872 5873 5874 5874 5875 5875 5875 5875 5876 5875 5874 5873 5871 5871 5871
5818 5822 5827 5829 5833 5836 5839 5844 5846 5848 5851 5854 5856 5857 5860 5861 5863 5865 5867 5868 5869 5869 5870 5870 5870 5871 5872 5871 5870 5869 5868 5867 5866
5808 5813 5816 5820 5825 5828 5831 5836 5839 5842 5844 5846 5850 5852 5854 5856 5858 5859 5861 5862 5863 5864 5864 5865 5865 5866 5866 5866 5866 5864 5864 5863 5862
5798 5803 5807 5810 5815 5820 5823 5827 5831 5833 5837 5839 5842 5845 5847 5850 5852 5854 5855 5856 5857 5858 5859 5859 5860 5860 5860 5860 5860 5859 5859 5858 5857
5784 5791 5796 5801 5805 5810 5813 5817 5822 5824 5829 5832 5834 5837 5839 5842 5844 5846 5848 5850 5851 5852 5853 5853 5853 5854 5854 5854 5853 5853 5852 5852 5851
5773 5778 5783 5788 5794 5799 5804 5808 5812 5816 5820 5822 5826 5828 5832 5835 5838 5839 5840 5842 5844 5845 5847 5846 5846 5847 5848 5848 5846 5846 5846 5845 5844
5762 5766 5771 5776 5783 5788 5793 5798 5802 5806 5810 5812 5816 5819 5824 5826 5828 5831 5833 5834 5836 5838 5839 5840 5840 5840 5841 5841 5840 5839 5838 5838 5836
5749 5755 5759 5765 5770 5777 5783 5787 5791 5795 5800 5803 5807 5810 5815 5817 5819 5822 5824 5827 5827 5828 5829 5831 5832 5832 5833 5833 5832 5831 5830 5830 5829
5736 5742 5748 5753 5758 5765 5772 5775 5781 5785 5790 5795 5797 5799 5803 5807 5811 5812 5815 5816 5819 5821 5821 5822 5824 5825 5824 5825 5824 5824 5822 5822 5822